Location: Grange Rosano
(44.4500°N, 6.9667°E)
Time: 08:22:12
(UTC+00:00)

USA 308 - Pass Details

Date: 26 May 2022
Orbit: 549 x 558 km, 54.0° (Epoch: 14 June)

Event Time Altitude Azimuth Distance (km) Brightness Sun altitude
Exits shadow 00:40:53 83° 238° (WSW) 566 2.7 -22.4°
Maximum altitude 00:41:02 90° 332° (NNW) 562 2.7 -22.4°
Drops below altitude 10° 00:45:13 10° 54° (NE) 1,833 6.2 -22.2°
Sets 00:47:30 0° 55° (NE) 2,749 7.3 -22.1°
